Forest City, IA

8:23 AM CST on December 03, 2016 (GMT -0600)
Forest City Municipal

Weather History for KFXY - October, 2013

Change the Weather History Date:

Wednesday, October 9, 2013

  Actual Average Record
Temperature  
Mean Temperature 60 °F -  
Max Temperature 73 °F 59 °F 80 °F (2011)
Min Temperature 46 °F 38 °F 32 °F (2012)
Degree Days  
Heating Degree Days 6    
Growing Degree Days 10 (Base 50)    
Moisture  
Dew Point 44 °F    
Average Humidity 60    
Maximum Humidity 93    
Minimum Humidity 29    
Precipitation  
Precipitation 0.00 in - - ()
Sea Level Pressure  
Sea Level Pressure 30.04 in    
Wind  
Wind Speed 9 mph (SSE)    
Max Wind Speed 17 mph    
Max Gust Speed 25 mph    
Visibility 10 miles    
Events      
Averages and records for this station are not official NWS values.
T = Trace of Precipitation, MM = Missing Value Source: NWS Daily Summary

Daily Weather History Graph

Daily Weather History Graph

Search for Another Location

Airport or City:

Trip Planner

Search our weather history database for the weather conditions in past years. The results will help you decide how hot, cold, wet, or windy it might be!

Date:

Astronomy

Oct. 09, 2013 Rise Set
Actual Time 7:21 AM CDT 6:41 PM CDT
Civil Twilight 6:52 AM CDT 7:09 PM CDT
Nautical Twilight 6:19 AM CDT 7:42 PM CDT
Astronomical Twilight 5:46 AM CDT 8:15 PM CDT
Moon 12:24 PM CDT (10/9) 10:09 PM CDT (10/9)
Length of Visible Light 12h 16m
Length of Day
11h 19m
Waxing Crescent, 25% of the Moon is Illuminated
Oct 9
Waxing Crescent
Oct 11
First Quarter
Oct 18
Full
Oct 26
Last Quarter
Nov 3
New

Hourly Weather History & Observations

Time (CDT) Temp. Windchill Dew Point Humidity Pressure Visibility Wind Dir Wind Speed Gust Speed Precip Events Conditions
12:15 AM 59.0 °F - 44.6 °F 59% 30.00 in 10.0 mi South 9.2 mph - N/A   Clear
12:35 AM 59.0 °F - 44.6 °F 59% 30.01 in 10.0 mi South 9.2 mph - N/A   Clear
12:55 AM 57.2 °F - 44.6 °F 63% 30.01 in 10.0 mi South 8.1 mph - N/A   Clear
1:15 AM 55.4 °F - 44.6 °F 67% 30.01 in 10.0 mi South 6.9 mph - N/A   Clear
1:35 AM 55.4 °F - 44.6 °F 67% 30.02 in 10.0 mi South 6.9 mph - N/A   Clear
1:55 AM 55.4 °F - 44.6 °F 67% 30.03 in 10.0 mi SSE 6.9 mph - N/A   Clear
2:15 AM 55.4 °F - 44.6 °F 67% 30.03 in 10.0 mi SSE 8.1 mph - N/A   Clear
2:35 AM 55.4 °F - 44.6 °F 67% 30.03 in 10.0 mi SSE 8.1 mph - N/A   Clear
3:15 AM 53.6 °F - 44.6 °F 72% 30.03 in 10.0 mi SSE 5.8 mph - N/A   Clear
3:35 AM 53.6 °F - 44.6 °F 72% 30.03 in 10.0 mi SSE 6.9 mph - N/A   Clear
3:55 AM 51.8 °F - 44.6 °F 76% 30.03 in 10.0 mi SSE 6.9 mph - N/A   Clear
4:15 AM 51.8 °F - 44.6 °F 76% 30.04 in 10.0 mi SSE 8.1 mph - N/A   Clear
4:35 AM 50.0 °F - 44.6 °F 82% 30.04 in 10.0 mi SSE 6.9 mph - N/A   Clear
4:55 AM 50.0 °F - 44.6 °F 82% 30.04 in 10.0 mi SSE 6.9 mph - N/A   Clear
5:15 AM 50.0 °F - 44.6 °F 82% 30.04 in 10.0 mi SSE 6.9 mph - N/A   Clear
5:35 AM 48.2 °F - 44.6 °F 87% 30.04 in 10.0 mi SE 6.9 mph - N/A   Clear
5:55 AM 50.0 °F - 44.6 °F 82% 30.04 in 10.0 mi SSE 6.9 mph - N/A   Clear
6:15 AM 50.0 °F - 44.6 °F 82% 30.04 in 10.0 mi SE 5.8 mph - N/A   Clear
6:35 AM 48.2 °F - 44.6 °F 87% 30.04 in 10.0 mi SSE 5.8 mph - N/A   Clear
6:55 AM 46.4 °F 42.9 °F 44.6 °F 93% 30.05 in 10.0 mi SE 6.9 mph - N/A   Clear
7:15 AM 46.4 °F 42.4 °F 44.6 °F 93% 30.05 in 10.0 mi SE 8.1 mph - N/A   Clear
7:35 AM 48.2 °F - 44.6 °F 87% 30.06 in 10.0 mi SE 6.9 mph - N/A   Clear
7:55 AM 48.2 °F - 46.4 °F 93% 30.06 in 7.0 mi SE 6.9 mph - N/A   Clear
8:15 AM 50.0 °F - 46.4 °F 87% 30.06 in 10.0 mi SSE 6.9 mph - N/A   Scattered Clouds
8:35 AM 51.8 °F - 46.4 °F 82% 30.06 in 10.0 mi SSE 9.2 mph - N/A   Scattered Clouds
8:55 AM 51.8 °F - 46.4 °F 82% 30.07 in 10.0 mi SSE 9.2 mph - N/A   Clear
9:15 AM 53.6 °F - 46.4 °F 77% 30.07 in 10.0 mi SSE 10.4 mph - N/A   Clear
9:35 AM 57.2 °F - 46.4 °F 67% 30.08 in 10.0 mi South 10.4 mph - N/A   Clear
9:55 AM 59.0 °F - 46.4 °F 63% 30.07 in 10.0 mi SSE 12.7 mph - N/A   Clear
10:15 AM 62.6 °F - 46.4 °F 55% 30.08 in 10.0 mi South 15.0 mph 18.4 mph N/A   Clear
10:35 AM 64.4 °F - 46.4 °F 52% 30.09 in 10.0 mi South 13.8 mph 17.3 mph N/A   Clear
10:55 AM 64.4 °F - 46.4 °F 52% 30.09 in 10.0 mi South 12.7 mph - N/A   Clear
11:15 AM 68.0 °F - 46.4 °F 46% 30.09 in 10.0 mi South 11.5 mph 17.3 mph N/A   Clear
11:35 AM 68.0 °F - 46.4 °F 46% 30.09 in 10.0 mi South 15.0 mph 20.7 mph N/A   Clear
11:55 AM 69.8 °F - 46.4 °F 43% 30.08 in 10.0 mi SSE 15.0 mph 23.0 mph N/A   Clear
12:15 PM 69.8 °F - 44.6 °F 40% 30.08 in 10.0 mi South 17.3 mph 25.3 mph N/A   Clear
12:35 PM 69.8 °F - 44.6 °F 40% 30.07 in 10.0 mi South 16.1 mph 23.0 mph N/A   Clear
12:55 PM 71.6 °F - 42.8 °F 35% 30.07 in 10.0 mi South 17.3 mph 24.2 mph N/A   Clear
1:15 PM 71.6 °F - 42.8 °F 35% 30.06 in 10.0 mi SSE 16.1 mph 23.0 mph N/A   Clear
1:35 PM 71.6 °F - 42.8 °F 35% 30.06 in 10.0 mi SSE 17.3 mph 23.0 mph N/A   Clear
1:55 PM 73.4 °F - 42.8 °F 33% 30.06 in 10.0 mi South 15.0 mph 24.2 mph N/A   Clear
2:15 PM 73.4 °F - 42.8 °F 33% 30.05 in 10.0 mi South 16.1 mph 24.2 mph N/A   Clear
2:35 PM 73.4 °F - 41.0 °F 31% 30.04 in 10.0 mi South 17.3 mph 23.0 mph N/A   Clear
2:55 PM 73.4 °F - 41.0 °F 31% 30.04 in 10.0 mi South 16.1 mph 23.0 mph N/A   Clear
3:15 PM 73.4 °F - 41.0 °F 31% 30.03 in 10.0 mi South 17.3 mph 21.9 mph N/A   Clear
3:55 PM 73.4 °F - 41.0 °F 31% 30.03 in 10.0 mi South 13.8 mph 24.2 mph N/A   Clear
4:15 PM 73.4 °F - 39.2 °F 29% 30.03 in 10.0 mi SSE 13.8 mph 23.0 mph N/A   Clear
4:35 PM 73.4 °F - 39.2 °F 29% 30.02 in 10.0 mi SSE 13.8 mph 21.9 mph N/A   Clear
4:55 PM 73.4 °F - 39.2 °F 29% 30.03 in 10.0 mi SSE 15.0 mph - N/A   Clear
5:15 PM 73.4 °F - 39.2 °F 29% 30.02 in 10.0 mi SSE 13.8 mph 18.4 mph N/A   Clear
5:35 PM 71.6 °F - 39.2 °F 31% 30.02 in 10.0 mi SSE 13.8 mph - N/A   Clear
5:55 PM 71.6 °F - 41.0 °F 33% 30.02 in 10.0 mi SSE 9.2 mph - N/A   Clear
6:15 PM 68.0 °F - 41.0 °F 37% 30.02 in 10.0 mi SE 8.1 mph - N/A   Clear
6:55 PM 60.8 °F - 42.8 °F 52% 30.02 in 10.0 mi SE 5.8 mph - N/A   Clear
7:15 PM 60.8 °F - 42.8 °F 52% 30.03 in 10.0 mi SE 4.6 mph - N/A   Clear
7:35 PM 59.0 °F - 42.8 °F 55% 30.03 in 10.0 mi SSE 4.6 mph - N/A   Clear
7:55 PM 55.4 °F - 42.8 °F 63% 30.03 in 10.0 mi SE 5.8 mph - N/A   Clear
8:15 PM 55.4 °F - 42.8 °F 63% 30.04 in 10.0 mi SE 5.8 mph - N/A   Clear
8:35 PM 53.6 °F - 42.8 °F 67% 30.04 in 10.0 mi SE 8.1 mph - N/A   Clear
8:55 PM 55.4 °F - 42.8 °F 63% 30.04 in 10.0 mi SSE 6.9 mph - N/A   Clear
9:15 PM 55.4 °F - 42.8 °F 63% 30.04 in 10.0 mi SE 8.1 mph - N/A   Clear
9:35 PM 53.6 °F - 42.8 °F 67% 30.04 in 10.0 mi SE 8.1 mph - N/A   Clear
9:55 PM 53.6 °F - 42.8 °F 67% 30.04 in 10.0 mi SE 9.2 mph - N/A   Clear
10:15 PM 53.6 °F - 42.8 °F 67% 30.04 in 10.0 mi SE 8.1 mph - N/A   Clear
10:35 PM 53.6 °F - 42.8 °F 67% 30.04 in 10.0 mi SSE 6.9 mph - N/A   Clear
10:55 PM 53.6 °F - 42.8 °F 67% 30.05 in 10.0 mi SE 8.1 mph - N/A   Clear
11:15 PM 51.8 °F - 42.8 °F 71% 30.06 in 10.0 mi SSE 5.8 mph - N/A   Clear
11:55 PM 50.0 °F - 42.8 °F 76% 30.05 in 10.0 mi SE 6.9 mph - N/A   Clear